Home   Weather   Durham   Past weeks

Flag for USA Past Weather in Durham, North Carolina, USA — Yesterday and Last 2 Weeks

Now
29 °F

Clear.


Feels Like: 29 °F
Forecast: 23 / 46 °F
Wind: No wind

Location: Raleigh-Durham International Airport

Current Time: Dec 10, 2016 at 11:20:52 pm

Latest Report: Dec 10, 2016 at 10:51 pm


Visibility: 10 mi

Pressure: 30.53 "Hg

Humidity: 58%

Dew Point: 16 °F

Location of DurhamLocation

Past Weather in Durham — Graph

°F

Durham Temperature Yesterday

Maximum temperature yesterday: 41 °F (at 2:51 pm)
Minimum temperature yesterday: 28 °F (at 10:51 pm)
Average temperature yesterday: 34 °F

High & Low Weather Summary for the Past Weeks

 TemperatureHumidityPressure
High75 °F (Nov 30, 12:51 pm)97% (Nov 30, 12:51 am)30.59 "Hg (Nov 30, 12:51 am)
Low20 °F (Dec 10, 5:51 am)19% (Dec 2, 2:51 pm)29.67 "Hg (Dec 6, 2:51 pm)
Average48 °F67%30.11 "Hg
* Reported Nov 25 9:51 pm — Dec 10 9:51 pm, Durham, Weather by CustomWeather, © 2016

Note: Actual official high and low records may vary slightly from our data, if they occured in-between our weather recording intervals... More about our weather records

Advertising

Durham Weather History for the Previous 24 Hours

Scroll right to see more
 ConditionsComfort  
Time TempWeatherWind HumidityBarometerVisibility
9:51 pm
Sat, Dec 10
29 °FPassing clouds.No wind58%30.53 "Hg10 mi
8:51 pm29 °FPassing clouds.No wind58%30.51 "Hg10 mi
7:51 pm30 °FPassing clouds.No wind56%30.52 "Hg10 mi
6:51 pm33 °FPassing clouds.No wind45%30.50 "Hg10 mi
5:51 pm35 °FPassing clouds.No wind40%30.49 "Hg10 mi
4:51 pm40 °FPassing clouds.No wind29%30.47 "Hg10 mi
3:51 pm43 °FPassing clouds.6 mph26%30.48 "Hg10 mi
2:51 pm44 °FPassing clouds.7 mph25%30.47 "Hg10 mi
1:51 pm41 °FPassing clouds.7 mph28%30.48 "Hg10 mi
12:51 pm40 °FPassing clouds.6 mph29%30.50 "Hg10 mi
11:51 am38 °FSunny.No wind34%30.54 "Hg10 mi
10:51 am35 °FSunny.3 mph44%30.57 "Hg10 mi
9:51 am33 °FSunny.8 mph52%30.59 "Hg10 mi
8:51 am28 °FSunny.No wind58%30.58 "Hg10 mi
7:51 am21 °FSunny.No wind81%30.57 "Hg10 mi
6:51 am20 °FClear.No wind78%30.56 "Hg10 mi
5:51 am20 °FClear.No wind82%30.53 "Hg10 mi
4:51 am22 °FClear.No wind75%30.51 "Hg10 mi
3:51 am23 °FClear.No wind68%30.53 "Hg10 mi
2:51 am24 °FClear.No wind68%30.53 "Hg10 mi
1:51 am25 °FClear.No wind63%30.52 "Hg10 mi
12:51 am26 °FClear.No wind60%30.50 "Hg10 mi
11:51 pm
Fri, Dec 9
28 °FClear.No wind56%30.50 "Hg10 mi
Weather by CustomWeather, © 2016

See weather overviewHow to use our weather pages